| time (UTC) | temp F | wind direction | speed MPH | gust MPH | rain 1hr in | rain 24hr in | rain mn in | humidity % | barometer mb |
| 20260504060234 | 61 | 109 | 3.0 | 6.0 | 0.00 | 0.00 | 0.00 | 78 | 1033.7 |
| 20260504050226 | 62 | 107 | 3.0 | 7.0 | 0.00 | 0.00 | 0.00 | 78 | 1033.7 |
| 20260504044722 | 62 | 109 | 4.0 | 7.0 | 0.00 | 0.00 | 0.00 | 77 | 1033.8 |
| 20260504043223 | 62 | 111 | 3.0 | 6.0 | 0.00 | 0.00 | 0.00 | 77 | 1033.6 |
| 20260504041718 | 63 | 102 | 2.0 | 4.0 | 0.00 | 0.00 | 0.00 | 74 | 1033.7 |
| 20260504040907 | 64 | 76 | 1.0 | 6.0 | 0.00 | 0.00 | 0.00 | 74 | 1033.7 |
| 20260504035415 | 63 | 111 | 2.0 | 4.0 | 0.00 | 0.00 | 0.00 | 75 | 1033.5 |
| 20260504033210 | 62 | 98 | 2.0 | 7.0 | 0.00 | 0.00 | 0.00 | 75 | 1033.6 |
| 20260504031710 | 63 | 101 | 2.0 | 6.0 | 0.00 | 0.00 | 0.00 | 75 | 1033.6 |
| 20260504030206 | 63 | 105 | 2.0 | 7.0 | 0.00 | 0.00 | 0.00 | 74 | 1033.7 |
| 20260504030109 | 63 | 73 | 2.0 | 5.0 | 0.00 | 0.00 | 0.00 | 75 | 1033.7 |
| 20260504023907 | 63 | 49 | 1.0 | 4.0 | 0.00 | 0.00 | 0.00 | 75 | 1033.6 |
| 20260504021658 | 63 | 51 | 2.0 | 6.0 | 0.00 | 0.00 | 0.00 | 74 | 1033.6 |
| 20260504020200 | 63 | 89 | 2.0 | 7.0 | 0.00 | 0.00 | 0.00 | 74 | 1033.6 |
| 20260504014655 | 63 | 103 | 2.0 | 6.0 | 0.00 | 0.00 | 0.00 | 73 | 1033.7 |
| 20260504013149 | 63 | 115 | 2.0 | 6.0 | 0.00 | 0.00 | 0.00 | 73 | 1033.8 |
| 20260504011645 | 63 | 105 | 3.0 | 7.0 | 0.00 | 0.00 | 0.00 | 73 | 1033.9 |
| 20260504010141 | 63 | 118 | 4.0 | 7.0 | 0.00 | 0.00 | 0.00 | 72 | 1034.2 |
| 20260504004636 | 64 | 124 | 3.0 | 6.0 | 0.00 | 0.00 | 0.00 | 72 | 1034.3 |
| 20260504003847 | 64 | 128 | 2.0 | 4.0 | 0.00 | 0.00 | 0.00 | 73 | 1034.4 |
| 20260504001632 | 64 | 138 | 1.0 | 6.0 | 0.00 | 0.00 | 0.00 | 73 | 1034.5 |
| 20260504000128 | 63 | 192 | 4.0 | 8.0 | 0.00 | 0.00 | 0.00 | 74 | 1034.5 |
| 20260503234629 | 62 | 189 | 4.0 | 9.0 | 0.00 | 0.00 | 0.00 | 76 | 1034.6 |
| 20260503233124 | 62 | 167 | 4.0 | 8.0 | 0.00 | 0.00 | 0.00 | 77 | 1034.8 |
| 20260503231620 | 62 | 196 | 3.0 | 9.0 | 0.00 | 0.00 | 0.00 | 79 | 1034.9 |
| 20260503230115 | 61 | 185 | 4.0 | 7.0 | 0.00 | 0.00 | 0.00 | 79 | 1034.9 |
| 20260503224610 | 60 | 188 | 3.0 | 6.0 | 0.00 | 0.00 | 0.00 | 81 | 1035.0 |
| 20260503223111 | 60 | 189 | 4.0 | 7.0 | 0.00 | 0.00 | 0.00 | 81 | 1035.1 |
| 20260503221607 | 59 | 181 | 4.0 | 7.0 | 0.00 | 0.00 | 0.00 | 82 | 1035.2 |
| 20260503220107 | 59 | 181 | 3.0 | 7.0 | 0.00 | 0.00 | 0.00 | 83 | 1035.3 |
| 20260503214603 | 59 | 219 | 3.0 | 7.0 | 0.00 | 0.00 | 0.00 | 83 | 1035.2 |
| 20260503213053 | 58 | 213 | 4.0 | 7.0 | 0.00 | 0.00 | 0.00 | 84 | 1035.3 |
| 20260503211550 | 58 | 196 | 4.0 | 6.0 | 0.00 | 0.00 | 0.00 | 85 | 1035.3 |
| 20260503210045 | 58 | 211 | 3.0 | 6.0 | 0.00 | 0.00 | 0.00 | 86 | 1035.4 |
| 20260503204545 | 57 | 180 | 4.0 | 7.0 | 0.00 | 0.00 | 0.00 | 88 | 1035.3 |
| 20260503203759 | 57 | 192 | 1.0 | 6.0 | 0.00 | 0.00 | 0.00 | 91 | 1035.3 |
| 20260503201541 | 56 | 175 | 4.0 | 8.0 | 0.00 | 0.00 | 0.00 | 92 | 1035.0 |
| 20260503200037 | 56 | 176 | 2.0 | 6.0 | 0.00 | 0.00 | 0.00 | 92 | 1035.0 |
| 20260503195230 | 55 | 230 | 3.0 | 8.0 | 0.00 | 0.00 | 0.00 | 92 | 1034.9 |
| 20260503193033 | 55 | 205 | 4.0 | 6.0 | 0.00 | 0.00 | 0.00 | 93 | 1034.8 |
| 20260503191528 | 54 | 223 | 3.0 | 8.0 | 0.00 | 0.00 | 0.00 | 93 | 1034.7 |
| 20260503190031 | 53 | 222 | 5.0 | 6.0 | 0.00 | 0.00 | 0.00 | 93 | 1034.7 |
| 20260503185215 | 53 | 222 | 2.0 | 6.0 | 0.00 | 0.00 | 0.00 | 93 | 1034.6 |
| 20260503183020 | 53 | 240 | 2.0 | 5.0 | 0.00 | 0.00 | 0.00 | 93 | 1034.3 |
| 20260503181517 | 52 | 229 | 4.0 | 5.0 | 0.00 | 0.00 | 0.00 | 93 | 1034.2 |
| 20260503180011 | 51 | 223 | 3.0 | 4.0 | 0.00 | 0.00 | 0.00 | 93 | 1034.0 |
| 20260503174507 | 51 | 245 | 2.0 | 3.0 | 0.00 | 0.00 | 0.00 | 93 | 1033.9 |
| 20260503173659 | 51 | 246 | 2.0 | 3.0 | 0.00 | 0.00 | 0.00 | 93 | 1033.8 |
| 20260503172149 | 51 | 249 | 2.0 | 3.0 | 0.00 | 0.00 | 0.00 | 93 | 1033.8 |
| 20260503131403 | 55 | 120 | 2.0 | 4.0 | 0.00 | 0.00 | 0.00 | 92 | 1035.3 |
| 20260503081136 | 56 | 275 | 1.0 | 3.0 | 0.00 | 0.00 | 0.00 | 85 | 1033.7 |
| 20260503071252 | 57 | 268 | 2.0 | 4.0 | 0.00 | 0.00 | 0.00 | 83 | 1033.6 |
| 20260503070442 | 57 | 264 | 3.0 | 4.0 | 0.00 | 0.00 | 0.00 | 82 | 1033.6 |